User: anonymous   Login
Location: NJAA Observatory
(40.6819°N, 74.8979°W)
Time: 06:20:52
(UTC-04:00)
Language:

ALOS - Orbit

View from above orbital plane
View from above orbital plane
View from above satellite
View from above satellite

Ground track
Ground track

The orbit data is extracted from the following two-line orbital elements,

1 28931U 06002A   18110.21096201  .00000150  00000-0  38182-4 0  9995
2 28931  97.8232 126.8237 0002613  71.9414 288.2066 14.62479663652332
Epoch (UTC): 20 April 2018 05:03:47
Eccentricity: 0.0002613
inclination: 97.8232°
perigee height: 683 km
apogee height: 687 km
right ascension of ascending node: 126.8237°
argument of perigee: 71.9414°
revolutions per day: 14.62479663
mean anomaly at epoch: 288.2066°
orbit number at epoch: 65233

The dashed part of the orbit path shows where the satellite is in the earth's shadow,  

DLR